Showing default

SJ-16, 39358

Orbit data source: Space-Track

SJ-16, 39358 is a payload satellite owned by CNMSC (CN) in LEO that was launched on Fri, 25 Oct 2013 UTC via a CHANG ZHENG 4B launch vehicle from the Jiuquan Satellite Launch Center, China (JSC). Payload-class satellites include a variety of spacecraft equipped with specific instruments for various scientific and technological missions. These include communications satellites like Starlink; space stations such as the ISS; scientific satellites like the Hubble; Earth observation satellites from companies like Planet Labs, Umbra, and HawkEye 360; GPS; miniature CubeSats for education and research; and military/defense satellites.

Loading next visibility...
Identifier
39358, 2013-057A
Orbit
LEO
Country
Flag of CNCN / PRC
Related business
Manufacturer
SISE
Mission
Operational Defense Technology
Bus & Motor
SJ-16, Unknown motor
Mass
~2,000 kg wet, ~2,000 kg dry
Launch date (UTC)
2013-10-25 (13 years ago)
Launch vehicle
CHANG ZHENG 4B
Launch site
Jiuquan Satellite Launch Center, China (JSC)
Object type
Payload
Rocket body
Debris
Shape & HBR
Box + 2 Pan, 5.0 m
Radar Cross Section
14.304 m², Large (>1 m²)

Expand to show TLE details & history
Last TLE update: 1 day ago

TLE from 1 day ago
0 SJ-16
1 39358U 13057A   26172.52913650  .00001372  00000-0  13578-3 0  9993
2 39358  74.9732 348.4587 0016708 220.7333 139.2607 14.92613704686996
Epoch: 2026-06-21T12:41Z
TLE epoch observation values (Epoch: 2026-06-21T12:41:57.393Z)
Latitude
-0.00005°
Longitude
-111.75855°
Altitude
601.353 km
Speed
7.554 km/s
True Right ascension
23h 13m 50s
True Declination
0° 00' 00"
Sunlit
Object was in daylight at epoch
Visualization orbit readout
Latitude
Unknown
Longitude
Unknown
Altitude
Unknown
Speed
Unknown
Apparent Right ascension
Unknown
Apparent Declination
Unknown
Sunlit
N/A
Visualization observer readout
Local Sidereal Time
23:18:41
Azimuth
Unknown
Elevation
Unknown
Doppler factor
Unknown
Orbital elements
Apogee altitude
598.909 km
Perigee altitude
575.634 km
Semi-major axis
6,965.408 km
Eccentricity
0.00167
Inclination
74.9732°
RAAN
348.4587°
Arg. of periapsis
220.7333°
True anomaly
139.38545°
Mean anomaly
139.2607°
Eccentric anomaly
139.3231°
Mean motion
3.73356 °/min
Orbital period
96.42 mins
BSTAR
0.00013578
Loading maneuver chart data...
Computing Atmospheric mass density...
Loading historical data...
Loading historical data...
Loading historical data...
Loading historical data...
Loading historical data...
Loading historical data...
Loading historical data...
Other satellites on launch #57 in the year 2013 (2013-10-25 UTC)

Documentation

Showing up to 5 results
|